UAE19 EGCC-OMDB

Flight info

Callsign UAE19
Flight time N/A
Altitude 35000
Route DESIG L603 DOLAS DCT NAVPI DCT DODEN DCT NEGIX DCT DINKU DCT BESNI DCT GOMIG DCT GOTAR DCT BABIT DCT TISAK DCT MAVIT DCT RASUB DCT ARTAT/N0486F370 UP975 EZS UG8 OTKEP UM688 SIDAD P975 SESRU M677 OBNET/N0501F350 M677 VUTEB
Aircraft B77W/H-SDE1E2E3FGHIJ2J3J4J5M1RWXY/LB1D1

Departure

Time 2026-05-04 07:15
Airport Manchester Airport (EGCC)

Arrival

Time N/A
Airport Dubai International Airport (OMDB)
Time Latitude Longitude Altitude Speed Heading
2026-05-04 06:56 53.36186 -2.27897 238 ft 0 kts 41°
2026-05-04 07:05 53.36179 -2.27908 238 ft 2 kts 51°
2026-05-04 07:05 53.36169 -2.27930 238 ft 2 kts 60°
2026-05-04 07:05 53.36162 -2.27955 238 ft 2 kts 80°
2026-05-04 07:05 53.36162 -2.27983 238 ft 2 kts 102°
2026-05-04 07:06 53.36176 -2.28031 238 ft 2 kts 131°
2026-05-04 07:06 53.36180 -2.28039 238 ft 0 kts 133°
2026-05-04 07:08 53.36158 -2.28001 238 ft 13 kts 134°
2026-05-04 07:09 53.36078 -2.27871 238 ft 16 kts 146°
2026-05-04 07:09 53.35972 -2.27835 238 ft 15 kts 185°
2026-05-04 07:09 53.35867 -2.27852 238 ft 15 kts 186°
2026-05-04 07:09 53.35759 -2.27872 238 ft 15 kts 187°
2026-05-04 07:10 53.35653 -2.27892 238 ft 15 kts 185°
2026-05-04 07:10 53.35547 -2.27909 238 ft 15 kts 186°
2026-05-04 07:12 53.35010 -2.28747 238 ft 15 kts 228°
2026-05-04 07:12 53.34937 -2.28877 238 ft 15 kts 226°
2026-05-04 07:12 53.34862 -2.29005 237 ft 15 kts 221°
2026-05-04 07:12 53.34763 -2.29067 237 ft 15 kts 179°
2026-05-04 07:13 53.34676 -2.28984 237 ft 11 kts 118°
2026-05-04 07:13 53.34690 -2.28912 237 ft 0 kts 50°
2026-05-04 07:13 53.34691 -2.28911 237 ft 0 kts 50°
2026-05-04 07:14 53.35091 -2.28081 239 ft 96 kts 51°
2026-05-04 07:14 53.35728 -2.26752 370 ft 186 kts 52°
2026-05-04 07:15 53.36591 -2.24901 1501 ft 201 kts 52°
2026-05-04 07:15 53.37431 -2.23132 2824 ft 197 kts 51°
2026-05-04 07:15 53.38344 -2.21210 3151 ft 225 kts 51°
2026-05-04 07:15 53.39378 -2.19030 3583 ft 248 kts 51°
2026-05-04 07:16 53.40452 -2.16761 4488 ft 252 kts 51°
2026-05-04 07:16 53.41550 -2.14438 4978 ft 256 kts 51°
2026-05-04 07:16 53.42663 -2.12078 4977 ft 257 kts 51°
2026-05-04 07:16 53.43744 -2.09783 4990 ft 253 kts 51°
2026-05-04 07:17 53.44847 -2.07442 5010 ft 258 kts 51°
2026-05-04 07:17 53.45965 -2.05064 4987 ft 261 kts 51°
2026-05-04 07:17 53.47096 -2.02658 4998 ft 264 kts 51°
2026-05-04 07:17 53.48234 -2.00234 5003 ft 264 kts 51°
2026-05-04 07:18 53.49395 -1.97842 4977 ft 263 kts 50°
2026-05-04 07:18 53.50557 -1.95485 4983 ft 261 kts 50°
2026-05-04 07:18 53.51322 -1.93935 4999 ft 260 kts 50°
2026-05-04 07:18 53.52272 -1.91472 4981 ft 257 kts 65°
2026-05-04 07:19 53.52786 -1.88596 4976 ft 260 kts 86°
2026-05-04 07:19 53.52405 -1.85651 5543 ft 264 kts 110°
2026-05-04 07:19 53.51759 -1.82711 6340 ft 272 kts 109°
2026-05-04 07:19 53.51139 -1.79670 7160 ft 278 kts 108°
2026-05-04 07:20 53.50537 -1.76550 7990 ft 283 kts 107°
2026-05-04 07:20 53.49946 -1.73369 8850 ft 288 kts 107°
2026-05-04 07:20 53.49362 -1.70123 9708 ft 293 kts 107°
2026-05-04 07:20 53.48777 -1.66824 10460 ft 300 kts 107°
2026-05-04 07:22 53.43653 -1.38209 14596 ft 398 kts 107°
2026-05-04 07:22 53.42845 -1.33752 15448 ft 401 kts 107°
2026-05-04 07:23 53.42025 -1.29242 16254 ft 406 kts 108°
2026-05-04 07:23 53.41209 -1.24692 17117 ft 410 kts 107°
2026-05-04 07:23 53.40402 -1.20084 17910 ft 414 kts 107°
2026-05-04 07:23 53.39563 -1.15420 18682 ft 419 kts 108°
2026-05-04 07:24 53.38705 -1.10747 19403 ft 422 kts 108°
2026-05-04 07:24 53.37844 -1.06087 20115 ft 425 kts 108°
2026-05-04 07:24 53.36953 -1.01278 20830 ft 429 kts 108°
2026-05-04 07:24 53.36078 -0.96549 21497 ft 433 kts 108°
2026-05-04 07:25 53.35182 -0.91713 22204 ft 436 kts 107°
2026-05-04 07:26 53.28642 -0.56758 26097 ft 462 kts 107°
2026-05-04 07:27 53.27670 -0.51616 26575 ft 466 kts 107°
2026-05-04 07:27 53.26686 -0.46432 27017 ft 470 kts 108°
2026-05-04 07:27 53.25697 -0.41220 27481 ft 473 kts 107°
2026-05-04 07:27 53.24703 -0.35960 27930 ft 477 kts 108°
2026-05-04 07:28 53.23699 -0.30655 28312 ft 481 kts 108°
2026-05-04 07:28 53.22682 -0.25319 28729 ft 484 kts 108°
2026-05-04 07:28 53.21650 -0.19964 29092 ft 487 kts 108°
2026-05-04 07:28 53.20615 -0.14622 29472 ft 490 kts 108°
2026-05-04 07:29 53.19565 -0.09205 29823 ft 493 kts 108°
2026-05-04 07:29 53.18505 -0.03743 30142 ft 496 kts 108°
2026-05-04 07:29 53.17442 0.01729 30448 ft 497 kts 108°
2026-05-04 07:29 53.16378 0.07203 30887 ft 495 kts 108°
2026-05-04 07:30 53.15321 0.12632 31419 ft 491 kts 109°
2026-05-04 07:30 53.14267 0.18040 31814 ft 491 kts 109°
2026-05-04 07:30 53.13208 0.23458 32101 ft 492 kts 109°
2026-05-04 07:30 53.12144 0.28886 32402 ft 493 kts 109°
2026-05-04 07:31 53.11077 0.34313 32782 ft 492 kts 109°
2026-05-04 07:31 53.10375 0.37875 33066 ft 491 kts 109°
2026-05-04 07:33 53.02865 0.75559 34920 ft 494 kts 110°
2026-05-04 07:33 53.01772 0.80987 34967 ft 497 kts 110°
2026-05-04 07:33 52.99576 0.91853 34995 ft 495 kts 110°
2026-05-04 07:34 52.97384 1.02579 35005 ft 489 kts 111°
2026-05-04 07:34 52.95020 1.13161 35011 ft 489 kts 112°
2026-05-04 07:35 52.92584 1.23696 35015 ft 490 kts 112°
2026-05-04 07:35 52.90168 1.34189 35012 ft 491 kts 112°
2026-05-04 07:36 52.87738 1.44782 35013 ft 493 kts 112°
2026-05-04 07:38 52.77890 1.87269 34994 ft 496 kts 113°
2026-05-04 07:38 52.75397 1.97886 34994 ft 496 kts 114°
2026-05-04 07:39 52.72893 2.08501 34993 ft 496 kts 114°
2026-05-04 07:39 52.70380 2.19100 34990 ft 496 kts 114°
2026-05-04 07:40 52.67857 2.29689 34989 ft 496 kts 114°
2026-05-04 07:40 52.65323 2.40269 34990 ft 496 kts 114°
2026-05-04 07:41 52.62781 2.50838 34987 ft 497 kts 114°
2026-05-04 07:41 52.60244 2.61333 34990 ft 497 kts 114°
2026-05-04 07:42 52.57681 2.71888 34987 ft 497 kts 114°
2026-05-04 07:42 52.55102 2.82437 34983 ft 497 kts 115°
2026-05-04 07:43 52.51992 2.92524 34989 ft 495 kts 122°
2026-05-04 07:43 52.48628 3.02391 34983 ft 496 kts 122°
2026-05-04 07:44 52.45263 3.12259 34979 ft 496 kts 122°
2026-05-04 07:44 52.41908 3.22160 34980 ft 497 kts 122°
2026-05-04 07:45 52.38551 3.32069 34977 ft 498 kts 122°
2026-05-04 07:45 52.35184 3.41972 34974 ft 498 kts 122°
2026-05-04 07:46 52.31804 3.51868 34977 ft 499 kts 123°
2026-05-04 07:46 52.28409 3.61767 34976 ft 499 kts 123°
2026-05-04 07:47 52.25004 3.71654 34978 ft 500 kts 123°
2026-05-04 07:49 52.11265 4.11157 34982 ft 501 kts 123°
2026-05-04 07:49 52.07806 4.21006 34973 ft 501 kts 124°
2026-05-04 07:50 52.04366 4.30763 34967 ft 501 kts 124°
2026-05-04 07:50 52.00900 4.40554 34960 ft 501 kts 124°
2026-05-04 07:51 51.97421 4.50345 34962 ft 500 kts 124°
2026-05-04 07:51 51.93936 4.60114 34968 ft 500 kts 124°
2026-05-04 07:52 51.90453 4.69841 34968 ft 499 kts 124°
2026-05-04 07:52 51.86968 4.79535 34965 ft 498 kts 125°
2026-05-04 07:54 51.72987 5.18057 34969 ft 496 kts 125°
2026-05-04 07:55 51.69479 5.27629 34980 ft 495 kts 125°
2026-05-04 07:55 51.65968 5.37176 34985 ft 495 kts 126°
2026-05-04 07:56 51.62446 5.46716 34959 ft 495 kts 126°
2026-05-04 07:56 51.58926 5.56217 34959 ft 494 kts 126°
2026-05-04 07:57 51.55405 5.65684 34976 ft 493 kts 126°
2026-05-04 07:57 51.51901 5.75070 34956 ft 492 kts 126°
2026-05-04 07:58 51.48376 5.84479 34972 ft 492 kts 126°
2026-05-04 07:58 51.44844 5.93870 34974 ft 491 kts 126°
2026-05-04 07:59 51.41308 6.03239 34967 ft 491 kts 126°
2026-05-04 07:59 51.37772 6.12572 34969 ft 490 kts 126°
2026-05-04 08:00 51.34228 6.21894 34985 ft 490 kts 126°
2026-05-04 08:02 51.19969 6.59061 34991 ft 491 kts 127°
2026-05-04 08:02 51.16384 6.68320 34993 ft 491 kts 127°
2026-05-04 08:03 51.12796 6.77557 34994 ft 490 kts 127°
2026-05-04 08:03 51.09196 6.86789 34997 ft 490 kts 127°
2026-05-04 08:04 51.05599 6.95981 34997 ft 489 kts 127°
2026-05-04 08:04 51.02025 7.05085 34991 ft 489 kts 127°
2026-05-04 08:05 50.98420 7.14230 34993 ft 488 kts 127°
2026-05-04 08:05 50.94811 7.23356 34989 ft 488 kts 127°
2026-05-04 08:06 50.91197 7.32465 34992 ft 488 kts 127°
2026-05-04 08:06 50.87574 7.41561 34994 ft 487 kts 127°
2026-05-04 08:08 50.73001 7.77834 35009 ft 490 kts 127°
2026-05-04 08:11 50.55860 8.18018 35022 ft 490 kts 134°
2026-05-04 08:11 50.49425 8.30494 35021 ft 490 kts 134°
2026-05-04 08:12 50.45160 8.38839 35018 ft 490 kts 133°
2026-05-04 08:12 50.40899 8.47168 35015 ft 489 kts 134°
2026-05-04 08:13 50.36573 8.55372 35010 ft 486 kts 137°
2026-05-04 08:13 50.31963 8.63099 35024 ft 484 kts 138°
2026-05-04 08:14 50.27336 8.70753 35019 ft 484 kts 138°
2026-05-04 08:16 50.08896 9.01323 35018 ft 483 kts 138°
2026-05-04 08:16 50.04307 9.08884 35029 ft 483 kts 138°
2026-05-04 08:17 49.99685 9.16475 35022 ft 484 kts 138°
2026-05-04 08:17 49.95792 9.22851 35027 ft 485 kts 138°
2026-05-04 08:19 49.77201 9.53086 35034 ft 485 kts 138°
2026-05-04 08:20 49.72534 9.60617 35029 ft 485 kts 138°
2026-05-04 08:20 49.67859 9.68143 35032 ft 485 kts 138°
2026-05-04 08:21 49.63176 9.75657 35034 ft 485 kts 138°
2026-05-04 08:21 49.58486 9.83159 35035 ft 486 kts 138°
2026-05-04 08:22 49.53791 9.90649 35050 ft 486 kts 138°
2026-05-04 08:24 49.34976 10.20446 35046 ft 486 kts 138°
2026-05-04 08:24 49.30251 10.27876 35052 ft 486 kts 138°
2026-05-04 08:25 49.25526 10.35285 35057 ft 486 kts 138°
2026-05-04 08:25 49.20758 10.42637 35074 ft 486 kts 139°
2026-05-04 08:27 49.01291 10.71386 35076 ft 487 kts 139°
2026-05-04 08:28 48.96415 10.78567 35065 ft 488 kts 139°
2026-05-04 08:28 48.91532 10.85734 35064 ft 488 kts 139°
2026-05-04 08:29 48.86637 10.92900 35044 ft 488 kts 140°
2026-05-04 08:31 48.67064 11.21454 35044 ft 491 kts 136°
2026-05-04 08:33 48.54892 11.52904 35042 ft 499 kts 120°
2026-05-04 08:33 48.53307 11.57552 35040 ft 499 kts 120°
2026-05-04 08:35 48.40415 11.94703 35043 ft 500 kts 120°
2026-05-04 08:35 48.37199 12.03889 35049 ft 500 kts 120°
2026-05-04 08:37 48.25799 12.36193 35034 ft 500 kts 120°
2026-05-04 08:38 48.22530 12.45384 35033 ft 499 kts 120°
2026-05-04 08:38 48.19251 12.54571 35043 ft 499 kts 120°
2026-05-04 08:40 48.07081 12.91956 35049 ft 500 kts 116°
2026-05-04 08:41 48.04217 13.01428 35048 ft 500 kts 116°
2026-05-04 08:41 48.01334 13.10870 35034 ft 500 kts 116°
2026-05-04 08:42 47.98438 13.20304 35041 ft 500 kts 116°
2026-05-04 08:42 47.95538 13.29715 35048 ft 499 kts 116°
2026-05-04 08:43 47.92632 13.39115 35052 ft 499 kts 116°
2026-05-04 08:43 47.89735 13.48453 35057 ft 499 kts 116°
2026-05-04 08:44 47.86814 13.57831 35049 ft 499 kts 116°
2026-05-04 08:46 47.75062 13.95219 35045 ft 499 kts 116°
2026-05-04 08:46 47.72102 14.04545 35058 ft 498 kts 116°
2026-05-04 08:47 47.69154 14.13807 35057 ft 499 kts 116°
2026-05-04 08:47 47.66179 14.23115 35051 ft 500 kts 116°
2026-05-04 08:48 47.63190 14.32430 35056 ft 500 kts 116°
2026-05-04 08:48 47.60194 14.41739 35063 ft 500 kts 116°
2026-05-04 08:49 47.57194 14.51022 35059 ft 500 kts 116°
2026-05-04 08:50 47.46640 14.83420 35077 ft 499 kts 116°
2026-05-04 08:51 47.43631 14.92577 35079 ft 498 kts 116°
2026-05-04 08:51 47.40606 15.01761 35085 ft 497 kts 116°
2026-05-04 08:52 47.37569 15.10943 35088 ft 497 kts 116°
2026-05-04 08:52 47.34525 15.20108 35086 ft 498 kts 116°
2026-05-04 08:54 47.22276 15.56684 35094 ft 498 kts 116°
2026-05-04 08:55 47.19212 15.65751 35097 ft 498 kts 116°
2026-05-04 08:55 47.16123 15.74862 35093 ft 498 kts 116°
2026-05-04 09:01 46.82278 16.68805 35112 ft 497 kts 119°
2026-05-04 09:01 46.78912 16.77622 35117 ft 497 kts 119°
2026-05-04 09:02 46.75543 16.86413 35129 ft 497 kts 119°
2026-05-04 09:02 46.72160 16.95210 35130 ft 497 kts 119°
2026-05-04 09:03 46.68770 17.03995 35132 ft 498 kts 119°
2026-05-04 09:03 46.65398 17.12709 35129 ft 498 kts 119°
2026-05-04 09:04 46.61988 17.21489 35133 ft 498 kts 119°
2026-05-04 09:04 46.58574 17.30254 35125 ft 498 kts 119°
2026-05-04 09:05 46.55151 17.39014 35133 ft 498 kts 119°
2026-05-04 09:05 46.51724 17.47754 35135 ft 498 kts 119°
2026-05-04 09:06 46.48288 17.56489 35140 ft 498 kts 119°
2026-05-04 09:08 46.35084 17.89802 35145 ft 498 kts 119°
2026-05-04 09:08 46.31615 17.98488 35147 ft 498 kts 119°
2026-05-04 09:09 46.28142 18.07157 35146 ft 498 kts 119°
2026-05-04 09:09 46.24661 18.15816 35159 ft 498 kts 119°
2026-05-04 09:10 46.21175 18.24464 35155 ft 499 kts 119°
2026-05-04 09:10 46.17673 18.33124 35156 ft 499 kts 119°
2026-05-04 09:11 46.14170 18.41757 35157 ft 498 kts 119°
2026-05-04 09:11 46.10665 18.50369 35160 ft 498 kts 119°
2026-05-04 09:12 46.07155 18.58966 35162 ft 498 kts 119°
2026-05-04 09:14 45.93098 18.93144 35152 ft 497 kts 118°
2026-05-04 09:14 45.89699 19.01776 35173 ft 496 kts 116°
2026-05-04 09:15 45.86394 19.10470 35162 ft 496 kts 116°
2026-05-04 09:15 45.83073 19.19142 35165 ft 496 kts 116°
2026-05-04 09:17 45.67908 19.58016 35171 ft 497 kts 116°
2026-05-04 09:18 45.64540 19.66577 35171 ft 497 kts 116°
2026-05-04 09:18 45.61145 19.75176 35174 ft 496 kts 116°
2026-05-04 09:19 45.57751 19.83749 35173 ft 496 kts 116°
2026-05-04 09:19 45.54348 19.92318 35173 ft 496 kts 116°
2026-05-04 09:20 45.50944 20.00862 35177 ft 496 kts 116°
2026-05-04 09:20 45.47534 20.09401 35179 ft 495 kts 116°
2026-05-04 09:21 45.44134 20.17926 35184 ft 494 kts 115°
2026-05-04 09:21 45.41502 20.26893 35172 ft 489 kts 104°
2026-05-04 09:22 45.39892 20.36243 35187 ft 486 kts 99°
2026-05-04 09:22 45.38402 20.45622 35184 ft 486 kts 99°
2026-05-04 09:23 45.36874 20.54995 35181 ft 486 kts 99°
2026-05-04 09:23 45.35318 20.64343 35180 ft 486 kts 99°
2026-05-04 09:25 45.29025 21.01589 35183 ft 485 kts 99°
2026-05-04 09:26 45.27433 21.10892 35181 ft 485 kts 99°
2026-05-04 09:26 45.25835 21.20192 35184 ft 484 kts 100°
2026-05-04 09:27 45.24219 21.29462 35186 ft 485 kts 102°
2026-05-04 09:27 45.21927 21.38499 35196 ft 488 kts 108°
2026-05-04 09:28 45.19342 21.47397 35185 ft 488 kts 109°
2026-05-04 09:28 45.16758 21.56303 35188 ft 488 kts 109°
2026-05-04 09:29 45.14197 21.65208 35178 ft 487 kts 109°
2026-05-04 09:29 45.11666 21.74030 35171 ft 487 kts 109°
2026-05-04 09:30 45.09116 21.82893 35179 ft 485 kts 109°
2026-05-04 09:30 45.06561 21.91738 35169 ft 485 kts 109°
2026-05-04 09:31 45.04003 22.00556 35162 ft 484 kts 109°
2026-05-04 09:31 45.01447 22.09335 35160 ft 483 kts 109°
2026-05-04 09:32 44.98886 22.18099 35157 ft 482 kts 109°
2026-05-04 09:34 44.89882 22.48682 35499 ft 483 kts 109°
2026-05-04 09:34 44.88588 22.53043 35878 ft 481 kts 109°
2026-05-04 09:34 44.87298 22.57386 36220 ft 480 kts 109°
2026-05-04 09:34 44.86005 22.61731 36507 ft 480 kts 109°
2026-05-04 09:35 44.84714 22.66063 36781 ft 480 kts 109°
2026-05-04 09:35 44.83439 22.70333 37036 ft 480 kts 109°
2026-05-04 09:35 44.80835 22.79036 37122 ft 481 kts 109°
2026-05-04 09:37 44.70476 23.13350 37127 ft 473 kts 110°
2026-05-04 09:38 44.67887 23.21854 37128 ft 474 kts 110°
2026-05-04 09:38 44.65304 23.30315 37132 ft 475 kts 110°
2026-05-04 09:39 44.62690 23.38844 37121 ft 476 kts 110°
2026-05-04 09:39 44.60069 23.47368 37122 ft 476 kts 110°
2026-05-04 09:40 44.57436 23.55901 37119 ft 476 kts 111°
2026-05-04 09:40 44.54801 23.64413 37116 ft 476 kts 111°
2026-05-04 09:42 44.44216 23.98333 37106 ft 474 kts 111°
2026-05-04 09:43 44.41558 24.06781 37110 ft 473 kts 111°
2026-05-04 09:43 44.38902 24.15196 37109 ft 473 kts 111°
2026-05-04 09:44 44.36244 24.23591 37113 ft 472 kts 111°
2026-05-04 09:46 44.25840 24.56189 37121 ft 472 kts 112°
2026-05-04 09:46 44.23153 24.64546 37118 ft 472 kts 112°
2026-05-04 09:47 44.20462 24.72881 37117 ft 471 kts 112°
2026-05-04 09:49 44.09680 25.06033 37118 ft 469 kts 113°
2026-05-04 09:51 44.00207 25.34832 37099 ft 466 kts 113°
2026-05-04 09:51 43.97511 25.42956 37103 ft 466 kts 114°
2026-05-04 09:52 43.94669 25.51027 37120 ft 465 kts 115°
2026-05-04 09:52 43.91765 25.59044 37101 ft 465 kts 115°
2026-05-04 09:53 43.88870 25.67048 37106 ft 464 kts 115°
2026-05-04 09:53 43.85981 25.75064 37112 ft 465 kts 115°
2026-05-04 09:54 43.83090 25.83079 37107 ft 465 kts 115°
2026-05-04 09:54 43.80189 25.91100 37103 ft 466 kts 115°
2026-05-04 09:55 43.77280 25.99120 37104 ft 466 kts 115°
2026-05-04 09:55 43.74854 26.05788 37096 ft 467 kts 115°
2026-05-04 09:56 43.71453 26.15110 37100 ft 467 kts 115°
2026-05-04 09:56 43.69012 26.21779 37098 ft 467 kts 115°
2026-05-04 09:57 43.66058 26.29831 37095 ft 467 kts 115°
2026-05-04 09:57 43.63136 26.37772 37092 ft 467 kts 116°
2026-05-04 09:58 43.60191 26.45751 37091 ft 466 kts 116°
2026-05-04 09:58 43.57246 26.53710 37084 ft 465 kts 116°
2026-05-04 10:00 43.45475 26.85297 37073 ft 462 kts 116°
2026-05-04 10:04 43.24889 27.39690 37048 ft 460 kts 116°
2026-05-04 10:04 43.21953 27.47362 37038 ft 460 kts 116°
2026-05-04 10:05 43.18979 27.55116 37041 ft 458 kts 116°
2026-05-04 10:05 43.16006 27.62843 37065 ft 459 kts 116°
2026-05-04 10:06 43.13025 27.70570 37052 ft 459 kts 116°
2026-05-04 10:06 43.10038 27.78294 37060 ft 459 kts 116°
2026-05-04 10:08 43.02753 27.97039 37040 ft 460 kts 116°
2026-05-04 10:08 42.99741 28.04753 37052 ft 460 kts 116°
2026-05-04 10:09 42.96725 28.12459 37042 ft 460 kts 116°
2026-05-04 10:09 42.93703 28.20157 37035 ft 460 kts 116°
2026-05-04 10:10 42.90672 28.27858 37047 ft 460 kts 116°
2026-05-04 10:10 42.87636 28.35551 37050 ft 461 kts 117°
2026-05-04 10:11 42.84595 28.43236 37041 ft 461 kts 117°
2026-05-04 10:11 42.81548 28.50917 37041 ft 461 kts 117°
2026-05-04 10:12 42.78490 28.58604 37034 ft 461 kts 117°
2026-05-04 10:12 42.75428 28.66281 37032 ft 462 kts 117°
2026-05-04 10:13 42.72377 28.73910 37031 ft 462 kts 117°
2026-05-04 10:13 42.69303 28.81577 37031 ft 462 kts 117°
2026-05-04 10:14 42.66216 28.89253 37028 ft 462 kts 117°
2026-05-04 10:16 42.53817 29.19891 37014 ft 463 kts 117°
2026-05-04 10:16 42.50698 29.27546 37010 ft 464 kts 117°
2026-05-04 10:17 42.47595 29.35145 37010 ft 464 kts 117°
2026-05-04 10:19 42.35425 29.65934 36990 ft 462 kts 108°
2026-05-04 10:19 42.33369 29.74167 36991 ft 462 kts 107°
2026-05-04 10:20 42.31320 29.82400 36985 ft 461 kts 107°
2026-05-04 10:20 42.29247 29.90598 36982 ft 461 kts 108°
2026-05-04 10:21 42.27159 29.98781 36981 ft 461 kts 108°
2026-05-04 10:21 42.25060 30.06964 36975 ft 461 kts 108°
2026-05-04 10:22 42.21922 30.19157 36972 ft 461 kts 108°
2026-05-04 10:23 42.19815 30.27310 36965 ft 460 kts 108°
2026-05-04 10:25 42.11410 30.59556 36967 ft 457 kts 108°
2026-05-04 10:25 42.09293 30.67612 36942 ft 455 kts 109°
2026-05-04 10:26 42.07172 30.75658 36942 ft 456 kts 109°
2026-05-04 10:26 42.05049 30.83682 36937 ft 454 kts 109°
2026-05-04 10:27 42.02919 30.91712 36939 ft 457 kts 109°
2026-05-04 10:27 42.00791 30.99707 36942 ft 458 kts 110°
2026-05-04 10:28 41.98633 31.07771 36922 ft 455 kts 110°